www.pogodaiklimat.ru

Погода и климат >> Архив погоды >> Россия >> Краснодарский край >> Горячий Ключ


ПОГОДА в Горячем Ключе

  • Прогноз погоды в Горячем Ключе
  • Монитор погоды в Горячем Ключе

АРХИВ ПОГОДЫ в Горячем Ключе

Время (UTC), дата Ветер
(напр.,м/с)
 
Видим.   Явления Облачность Т
(С)
Тd
(С)
f
(%)
Тe
(С)
Тes
(С)
Комфортность P
(гПа)
Po
(гПа)
Тmin
(С)
Tmax
(С)
R
(мм)
R24
(мм)
S
(см)
18 13.07 штиль 0 20 км 3/3 1000 м
[Cu med, cong]
+17.9 +14.5 80 +18 +18 1011.7 1004.4
21 13.07 З 1 20 км ясно +15.5 +13.9 90 +16 +16 1011.6 1004.2
00 14.07 СЗ 1 20 км ясно +14.0 +13.0 94 +14 +14 1011.1 1003.7
03 14.07 З 1 20 км 3/0
[Ci]
+13.5 +12.6 94 +14 +15 1011.2 1003.8 +13.2
06 14.07 СЗ 1 20 км 1/1 1000 м
[Cu med, cong]
+21.9 +13.7 60 +25 +36 комфорт 1010.9 1003.7
09 14.07 Ю 1 20 км 3/3 1000 м
[Cu med, cong]
+25.1 +12.1 44 +27 +42 жарко 1009.6 1002.5
12 14.07 ЮЗ 1 20 км 8/3 1000 м
[Cu med, cong Cs]
+26.6 +10.4 36 +27 +37 жарко 1008.6 1001.5
15 14.07 СЗ 1 20 км 10/1 1000 м
[Cu med, cong Cs]
+25.9 +12.0 42 +27 +29 жарко 1007.8 1000.7 +27.5
18 14.07 Ю 1 20 км 10/0 2000 м
[Ac trans Cs]
+20.5 +15.5 73 +24 +24 комфорт 1007.9 1000.7
21 14.07 З 1 20 км 9/0 2000 м
[Ac trans Cs]
+17.8 +15.3 85 +19 +19 1006.9 999.6
00 15.07 штиль 0 20 км 10/0 2000 м
[Ac trans Cs]
+16.1 +14.3 89 +16 +16 1005.4 998.1
03 15.07 штиль 0 20 км 3/0 2000 м
[Ac trans]
+15.0 +14.2 95 +15 +16 1004.5 997.2 +14.6
06 15.07 СВ 1 20 км 10/4 600 м
[Cb calv Ac und]
+18.9 +14.6 76 +21 +23 комфорт 1004.4 997.2
09 15.07 З 1 10 км слаб. ливневой дождь 10/6 600 м
[Cb cap Ac cuf]
+20.0 +15.1 73 +23 +26 комфорт 1004.9 997.7
12 15.07 штиль 0 4000 м ливневой дождь 10/10 600 м
[Cb cap]
+18.1 +16.5 90 +18 +18 1005.6 998.4
15 15.07 С 1 20 км {ливн. осадки} 9/4 600 м
[Cb calv Ac cuf Cc]
+18.9 +17.1 89 +21 +22 комфорт 1004.8 997.6 +20.3 7
18 15.07 штиль 0 20 км {ливн. осадки} 9/6 600 м
[Cb calv Ac trans Cc]
+17.6 +16.7 94 +18 +18 1005.8 998.6
21 15.07 штиль 0 1000 м дымка 9/9 600 м
[Sc]
+16.5 +15.9 96 +16 +16 1006.0 998.8
00 16.07 В 1 10 км слаб. ливневой дождь {туман} 8/8 600 м
[Cb cap]
+16.4 +15.8 96 +17 +17 1005.2 998.0
03 16.07 штиль 0 4000 м дымка {ливн. осадки} 10/10 600 м
[Sc]
+16.2 +15.7 97 +16 +16 1005.3 998.0 +15.8 1
06 16.07 ЮЗ 2 20 км в посл. час ливневой дождь 8/4 600 м
[Cb calv Ac cuf]
+21.8 +16.4 71 +26 +29 душно 1005.5 998.4
09 16.07 ЮЗ 2 20 км 6/4 600 м
[Cb calv Ac cuf]
+24.2 +15.7 59 +27 +36 жарко 1006.3 999.2
12 16.07 ЮЗ 3-10
{10}
20 км 8/5 600 м
[Cb calv Ac cuf]
+25.4 +14.4 51 +28 +31 жарко 1007.3 1000.2
15 16.07 ЮЗ 2
{10}
20 км 8/3 600 м
[Cb calv Ac cuf]
+23.0 +14.8 60 +27 +28 душно 1008.7 1001.5 +25.4 0.3
18 16.07 ЮЗ 1 20 км ясно +20.6 +15.0 70 +25 +25 комфорт 1010.1 1002.9
21 16.07 СЗ 1 20 км ясно +17.8 +15.6 87 +19 +19 1010.1 1002.8
00 17.07 З 1 20 км ясно +16.9 +14.8 87 +18 +18 1009.5 1002.2
03 17.07 штиль 0 20 км 3/0
[Ci fib]
+15.7 +14.0 90 +15 +16 1009.4 1002.1 +15.6
06 17.07 С 1 20 км 4/0
[Ci]
+23.5 +15.6 61 +27 +37 душно 1008.8 1001.7
09 17.07 СВ 1 20 км 4/1 1000 м
[Cu med, cong Ci]
+27.4 +14.7 46 +30 +48 жарко 1007.8 1000.8
12 17.07 С 1 20 км 8/1 1000 м
[Cu med, cong Ac trans Cc]
+28.2 +14.7 44 +31 +39 душно 1007.0 1000.0
15 17.07 С 1 20 км ясно +28.6 +13.0 38 +30 +33 жарко 1006.1 999.1 +29.2
18 17.07 Ю 1 20 км 9/8 600 м
[Sc Ac trans]
+22.8 +16.1 66 +27 +27 душно 1006.3 999.2
21 17.07 штиль 0 20 км 9/6 600 м
[Cu Sc Ac trans Cc]
+21.4 +16.2 72 +25 +25 комфорт 1006.4 999.3
00 18.07 Ю 1 20 км 4/4 600 м
[Sc]
+19.7 +14.1 70 +23 +23 комфорт 1006.2 999.0
03 18.07 штиль 0 20 км 10/10 600 м
[Sc]
+19.4 +14.7 74 +21 +21 комфорт 1006.3 999.1 +18.1
06 18.07 штиль 0 20 км {ливн. осадки} 8/1 600 м
[Cb calv Ac cast Cc]
+21.7 +16.0 70 +25 +33 комфорт 1006.5 999.4
09 18.07 СЗ 1 20 км 10/3 1000 м
[Cb calv Ac As]
+24.8 +17.4 63 +29 +33 душно 1007.1 1000.0
12 18.07 С 2 20 км 10/3 1000 м
[Cb calv Ac trans Cc]
+24.8 +17.1 62 +29 +33 душно 1007.8 1000.7
15 18.07 С 1 20 км 8/1 1000 м
[Cu hum Cc]
+25.1 +16.8 60 +29 +31 душно 1008.7 1001.6 +25.9 0.0
18 18.07 Ю 1 20 км 5/0 2000 м
[Ac cast Cc]
+21.1 +17.6 80 +25 +25 комфорт 1010.4 1003.2
21 18.07 З 1 20 км зарница 4/1 1000 м
[Cb calv Ci sp]
+19.3 +17.5 89 +22 +22 комфорт 1011.5 1004.3
00 19.07 штиль 0 20 км 10/4 1000 м
[Cb calv Ac trans]
+18.3 +16.9 92 +19 +19 1012.3 1005.0
03 19.07 штиль 0 20 км 9/3 600 м
[Cb calv Ac trans Cc]
+18.5 +17.1 92 +19 +20 1013.3 1006.1 +17.9
06 19.07 штиль 0 20 км 10/9 600 м
[Cb calv Ac und]
+20.7 +18.1 85 +24 +25 комфорт 1014.2 1007.0
09 19.07 С 1 20 км 9/8 600 м
[Cb calv Ac trans]
+23.8 +17.9 70 +28 +31 душно 1014.4 1007.3
12 19.07 СЗ 1 20 км 8/3 600 м
[Cb calv Ac trans Cc]
+27.8 +16.6 51 +31 +38 душно 1014.1 1007.1
15 19.07 штиль 0 20 км 9/5 600 м
[Cb calv Ac cuf Cs]
+27.8 +17.0 52 +32 +33 душно 1014.4 1007.4 +28.7
18 19.07 В 1 20 км 8/6 600 м
[Cb calv Ac trans]
+23.0 +16.0 65 +27 +27 душно 1016.5 1009.3
21 19.07 З 1 20 км 3/0 2000 м
[Ac trans Cc]
+19.3 +15.6 79 +22 +22 комфорт 1017.0 1009.8
00 20.07 З 1 20 км 8/0 2000 м
[Ac trans]
+18.3 +15.1 82 +20 +20 1017.3 1010.0
03 20.07 СЗ 1 20 км 1/1 1000 м
[Cu hum]
+16.6 +15.3 92 +17 +18 1018.2 1010.8 +16.4
06 20.07 СВ 1 20 км ясно +24.5 +16.0 59 +28 +39 душно 1017.8 1010.7
09 20.07 С 1 20 км ясно +28.5 +16.8 49 +32 +54 опасность
солнечного
удара
1016.8 1009.7
12 20.07 СВ 1 20 км 6/6 1000 м
[Cu med, cong]
+30.2 +16.4 43 +33 +39 душно 1015.9 1008.9

 

Местоположение метеостанции Горячий Ключ (Краснодарский край, Россия): широта 44.63 долгота 39.10 высота над уровнем моря 62 м.

В архиве по умолчанию представлена погода в Горячем Ключе за последнюю неделю. Архивные данные за месяц целиком и за предыдущие месяцы, начиная с января 2011 года, Вы можете получить, выбрав интересующий диапазон дат из раскрывающегося списка и нажав кнопку "Ввод!".


*Определитесь, кто Вы:
робот инопланетянин человек

Внимание! Время в таблицах - всемирное. Для получения местного времени необходимо прибавить поправку, которая равна 3 ч.

Смотрите также архив погоды в соседних городах и на ближайших метеорологических станциях:

Погода в Горном (Краснодарский край, Россия) (41 км)
Погода в Джубге (Краснодарский край, Россия) (45 км)
Погода в Краснодаре (Краснодарский край, Россия) (47 км)
Погода в Туапсе (Краснодарский край, Россия) (59 км)
Погода в Белореченске (Краснодарский край, Россия) (65 км)
Погода в Магри (Краснодарский край, Россия) (68 км)
Погода в Майкопе (Адыгея, Россия) (78 км)
Погода в Геленджике (Краснодарский край, Россия) (81 км)
Погода в Шунтуке (Адыгея, Россия) (83 км)
Погода в Усть-Лабинске (Краснодарский край, Россия) (83 км)

Пояснения к столбцам:

Ветер - указаны скорость ветра в м/с - средняя за 10 мин, порывы в срок и между сроками (в фигурных скобках) и направление, откуда дует ветер: С - северный, СВ - северо-восточный, В - восточный, ЮВ - юго-восточный, Ю - южный, ЮЗ - юго-западный, З - западный, СЗ - северо-западный.
Видимость - горизонтальная дальность видимости в метрах или километрах. При видимости от 1 до 10 км при отсутствии осадков обычно наблюдается дымка, при ухудшении видимости до 1 км и менее - туман. В сухую погоду видимость может ухудшаться дымом, пылью или мглою.
Явления - указаны атмосферные явления, наблюдавшиеся в срок или в последний час перед сроком; фигурными скобками обозначены явления, наблюдавшиеся между сроками (за 1-3 часа до срока); квадратными скобками обозначены град или гололедные отложения с указанием их диаметра в мм.
Облачность - указаны через наклонную черту общая и нижняя облачность в баллах и высота нижней границы облаков в метрах; квадратными скобками обозначены формы облаков: Ci - перистые, Cs - перисто-слоистые, Cc - перисто-кучевые, Ac - высококучевые, As - высокослоистые, Sc - слоисто-кучевые, Ns - слоисто-дождевые, Cu - кучевые, Cb - кучево-дождевые. Подробнее классификацию облаков см. в Атласе облаков (PDF).
T - Температура воздуха - температура, измеренная на высоте 2 м над землей.
Td - Температура точки росы - температура, при понижении до которой содержащийся в воздухе водяной пар достигнет насыщения.
f - Относительная влажность воздуха - влажноcть воздуха, измеренная на высоте 2 м над землей.
Te - Эффективная температура - температура, которую ощущает одетый по сезону человек в тени. Характеристика душности погоды. При расчете учитывается влияние влажности воздуха и скорости ветра на теплоощущения человека.
Tes - Эффективная температура на солнце - температура, которую ощущает человек, с поправкой на солнечный нагрев. Характеристика знойности погоды. Зависит от высоты солнца над горизонтом, облачности и скорости ветра. Ночью, в пасмурную погоду, а также при ветре 12 м/с и более поправка равна нулю.
P - Атмосферное давление - приведенное к уровню моря атмосферное давление.
Po - Атмосферное давление - измеренное на уровне метеостанции атмосферное давление.
Tmin - Минимальная температура - минимум температуры воздуха на высоте 2 м над землей.
Tmax - Максимальная температура - максимум температуры воздуха на высоте 2 м над землей.
R - Количество осадков - Количество выпавших осадков за период времени, мм. При наведении курсора мыши на число - период времени, за который выпало указанное количество осадков.
R24 - Количество осадков - Количество выпавших осадков за 24 часа, мм.
S - Снежный покров - Высота снежного покрова, см. При наведении курсора мыши на число - состояние снежного покрова и степень покрытия местности в баллах.